カタログに戻る

STARLINK-33572

運用中通信VLEO
NORAD 62767·PAYLOAD·🇺🇸 United States

打ち上げ Jan 21, 2025 から Vandenberg Space Force Base

Loading…

次のパス (今後24時間)

TLE

最新Source: CelesTrak SupGP

元期: Sep 15, 2026, 02:54 UTC

1 62767C 25015K   26258.12131944  .00009026  00000+0  26675-3 0  2582
2 62767  53.1585 159.0871 0001222  83.0074 256.5665 15.34376168    17

AllMySatでSTARLINK-33572をリアルタイム追跡

Download on the App Store